GW6934 Weather Reports


time (UTC)temp
F
wind
direction
speed
knots
gust
knots
rain 1hr
in
rain 24hr
in
rain mn
in
humidity
%
barometer
mb
20260504000618 59 209 2.6 2.6 0.00 0.00 0.00 44 1047.5
20260504000116 60 182 3.5 3.5 0.00 0.00 0.00 42 1047.6
20260503235614 60 170 1.7 3.5 0.00 0.00 0.00 43 1047.8
20260503235110 60 146 1.7 7.0 0.00 0.00 0.00 41 1047.6
20260503234608 60 168 2.6 5.2 0.00 0.00 0.00 42 1047.6
20260503234106 61 205 1.7 5.2 0.00 0.00 0.00 41 1047.6
20260503233603 61 200 1.7 3.5 0.00 0.00 0.00 40 1048.1
20260503233058 62 170 4.3 7.0 0.00 0.00 0.00 36 1047.8
20260503232555 62 202 3.5 6.1 0.00 0.00 0.00 36 1048.1
20260503232053 61 147 1.7 3.5 0.00 0.00 0.00 37 1048.2
20260503231550 61 245 3.5 7.0 0.00 0.00 0.00 37 1047.9
20260503231047 61 216 2.6 6.1 0.00 0.00 0.00 37 1048.2
20260503230543 61 240 2.6 7.0 0.00 0.00 0.00 36 1048.4
20260503230041 62 230 0.9 3.5 0.00 0.00 0.00 38 1048.7
20260503225538 62 201 1.7 3.5 0.00 0.00 0.00 35 1048.4
20260503225032 62 219 3.5 5.2 0.00 0.00 0.00 37 1048.5
20260503224530 64 250 3.5 7.0 0.00 0.00 0.00 34 1048.5
20260503224028 64 216 3.5 6.1 0.00 0.00 0.00 33 1048.5
20260503223526 64 227 3.5 3.5 0.00 0.00 0.00 35 1048.6
20260503223021 64 255 3.5 6.1 0.00 0.00 0.00 35 1048.6
20260503222520 64 225 3.5 5.2 0.00 0.00 0.00 33 1049.0
20260503222017 64 232 2.6 6.1 0.00 0.00 0.00 33 1048.9
20260503221515 64 232 5.2 7.0 0.00 0.00 0.00 32 1048.8
20260503221013 64 220 2.6 6.1 0.00 0.00 0.00 35 1048.8
20260503220508 64 234 2.6 7.0 0.00 0.00 0.00 34 1048.9
20260503220005 64 199 3.5 7.0 0.00 0.00 0.00 34 1049.2
20260503215502 64 210 3.5 6.1 0.00 0.00 0.00 34 1049.2
20260503214959 64 230 0.9 5.2 0.00 0.00 0.00 35 1049.1
20260503214458 64 153 2.6 6.1 0.00 0.00 0.00 32 1049.0
20260503213955 63 263 1.7 7.0 0.00 0.00 0.00 35 1048.7
20260503213453 64 209 8.7 13.0 0.00 0.00 0.00 30 1048.8
20260503212949 64 159 4.3 7.8 0.00 0.00 0.00 32 1048.8
20260503212446 64 185 6.1 9.6 0.00 0.00 0.00 34 1049.1
20260503211943 64 214 3.5 8.7 0.00 0.00 0.00 32 1049.0
20260503211441 64 232 5.2 7.8 0.00 0.00 0.00 31 1049.3
20260503210936 63 164 3.5 3.5 0.00 0.00 0.00 33 1049.3
20260503210433 63 224 5.2 7.0 0.00 0.00 0.00 31 1049.3
20260503205928 63 224 5.2 7.8 0.00 0.00 0.00 32 1049.3
20260503205425 63 153 3.5 12.2 0.00 0.00 0.00 35 1049.4
20260503204921 63 278 2.6 6.1 0.00 0.00 0.00 33 1049.6
20260503204419 63 269 4.3 7.8 0.00 0.00 0.00 31 1049.4
20260503203916 63 209 3.5 6.1 0.00 0.00 0.00 32 1049.6
20260503203413 63 205 2.6 7.0 0.00 0.00 0.00 36 1049.7
20260503202910 63 113 4.3 9.6 0.00 0.00 0.00 31 1049.9
20260503202408 62 247 4.3 8.7 0.00 0.00 0.00 33 1050.0
20260503201906 62 205 5.2 8.7 0.00 0.00 0.00 32 1050.3
20260503201403 62 270 7.8 11.3 0.00 0.00 0.00 32 1050.1
20260503200900 63 301 5.2 8.7 0.00 0.00 0.00 30 1050.2
20260503200356 62 198 1.7 5.2 0.00 0.00 0.00 37 1050.4
20260503195853 62 191 6.1 8.7 0.00 0.00 0.00 31 1050.9
20260503195349 63 182 5.2 8.7 0.00 0.00 0.00 30 1050.7
20260503194847 63 238 5.2 9.6 0.00 0.00 0.00 32 1050.8
20260503194343 63 240 2.6 7.0 0.00 0.00 0.00 30 1050.8
20260503193839 63 269 3.5 6.1 0.00 0.00 0.00 37 1051.2
20260503193335 62 214 2.6 6.1 0.00 0.00 0.00 37 1051.1
20260503192831 62 203 5.2 7.8 0.00 0.00 0.00 34 1051.4
20260503192327 62 226 2.6 8.7 0.00 0.00 0.00 36 1051.2
20260503191823 62 162 2.6 8.7 0.00 0.00 0.00 38 1051.4
20260503191320 62 211 1.7 8.7 0.00 0.00 0.00 36 1051.4
20260503190817 61 167 2.6 3.5 0.00 0.00 0.00 37 1051.5
20260503190314 61 209 2.6 9.6 0.00 0.00 0.00 37 1051.3
20260503185811 61 211 8.7 9.6 0.00 0.00 0.00 33 1051.5
20260503185307 61 232 2.6 5.2 0.00 0.00 0.00 35 1051.5
20260503184807 61 248 1.7 3.5 0.00 0.00 0.00 41 1051.8
20260503184304 60 149 3.5 7.8 0.00 0.00 0.00 37 1051.7
20260503183759 60 161 7.8 9.6 0.00 0.00 0.00 36 1051.8
20260503183257 60 209 9.6 12.2 0.00 0.00 0.00 32 1051.9
20260503182755 60 178 6.1 7.0 0.00 0.00 0.00 35 1052.0
20260503182253 60 210 4.3 7.0 0.00 0.00 0.00 32 1051.9
20260503181750 60 190 5.2 7.0 0.00 0.00 0.00 34 1051.9
20260503181247 60 214 3.5 5.2 0.00 0.00 0.00 36 1052.2
20260503180743 59 162 7.0 8.7 0.00 0.00 0.00 34 1052.2
20260503180242 60 214 5.2 8.7 0.00 0.00 0.00 34 1052.1
20260503175738 59 190 2.6 5.2 0.00 0.00 0.00 37 1052.3
20260503175236 60 189 7.0 9.6 0.00 0.00 0.00 32 1052.4
20260503174732 60 215 2.6 7.8 0.00 0.00 0.00 39 1052.7
20260503174230 60 202 3.5 9.6 0.00 0.00 0.00 37 1052.8
20260503173730 60 223 3.5 6.1 0.00 0.00 0.00 36 1052.6
20260503173226 60 199 4.3 6.1 0.00 0.00 0.00 37 1052.8
20260503172724 59 139 3.5 7.0 0.00 0.00 0.00 43 1052.7
20260503172220 59 184 5.2 8.7 0.00 0.00 0.00 33 1052.8
20260503171717 59 169 3.5 9.6 0.00 0.00 0.00 36 1052.9
20260503171214 59 175 5.2 7.0 0.00 0.00 0.00 33 1053.2
20260503170711 60 216 5.2 7.8 0.00 0.00 0.00 35 1053.2
20260503170208 59 153 0.9 2.6 0.00 0.00 0.00 35 1053.3
20260503160130 57 203 1.7 2.6 0.00 0.00 0.00 34 1054.0
20260503150559 56 244 1.7 3.5 0.00 0.00 0.00 36 1054.2
20260503130949 46 173 3.5 5.2 0.00 0.00 0.00 68 1054.2
20260503130447 45 212 1.7 2.6 0.00 0.00 0.00 71 1054.3
20260503110343 31 28 0.0 0.0 0.00 0.00 0.00 97 1053.4
20260503090235 32 28 0.0 0.0 0.00 0.00 0.00 96 1053.2
20260503081202 31 28 0.0 0.0 0.00 0.00 0.00 94 1052.8
20260503080657 31 28 0.0 0.0 0.00 0.00 0.00 94 1052.7
20260503080155 32 28 0.0 0.0 0.00 0.00 0.00 94 1052.7
20260503072632 33 28 0.0 0.0 0.00 0.00 0.00 93 1052.5
20260503072128 33 28 0.0 0.0 0.00 0.00 0.00 93 1052.5
20260503071625 33 28 0.0 0.0 0.00 0.00 0.00 93 1052.4
20260503071122 33 28 0.0 0.0 0.00 0.00 0.00 92 1052.6
20260503070619 33 28 0.9 0.9 0.00 0.00 0.00 92 1052.5
20260503070117 33 28 0.0 0.0 0.00 0.00 0.00 92 1052.7
20260503055037 35 28 0.0 0.0 0.00 0.00 0.00 87 1052.9
20260503054533 35 28 0.0 0.0 0.00 0.00 0.00 87 1052.6
20260503054031 35 28 0.0 0.0 0.00 0.00 0.00 87 1052.7
20260503053529 36 28 0.0 0.0 0.00 0.00 0.00 85 1052.5
20260503053026 36 28 0.0 0.0 0.00 0.00 0.00 84 1052.7
20260503052523 36 28 0.0 0.0 0.00 0.00 0.00 83 1052.8
20260503052019 37 28 0.0 0.0 0.00 0.00 0.00 82 1052.9
20260503051515 37 28 0.0 0.0 0.00 0.00 0.00 82 1052.9
20260503051013 37 28 0.0 0.0 0.00 0.00 0.00 80 1052.8
20260503050508 37 28 0.0 0.0 0.00 0.00 0.00 80 1052.7
20260503050006 38 28 0.0 0.0 0.00 0.00 0.00 77 1053.0
20260503045503 39 28 0.0 0.0 0.00 0.00 0.00 77 1052.8
20260503045000 39 28 0.0 0.0 0.00 0.00 0.00 74 1052.9
20260503044457 40 28 0.0 0.0 0.00 0.00 0.00 73 1052.7
20260503043954 40 28 0.0 0.0 0.00 0.00 0.00 72 1052.9
20260503043450 41 28 0.0 0.0 0.00 0.00 0.00 67 1052.8
20260503042947 42 28 0.0 0.9 0.00 0.00 0.00 66 1052.9
20260503042443 42 28 0.0 0.9 0.00 0.00 0.00 65 1052.7
20260503041940 42 28 0.9 1.7 0.00 0.00 0.00 63 1052.6
20260503041437 43 33 1.7 1.7 0.00 0.00 0.00 62 1052.9
20260503040934 43 35 1.7 1.7 0.00 0.00 0.00 62 1052.8
20260503040432 43 35 0.9 0.9 0.00 0.00 0.00 61 1052.5
20260503035929 44 35 1.7 1.7 0.00 0.00 0.00 60 1052.4
20260503035425 44 31 1.7 2.6 0.00 0.00 0.00 60 1052.6
20260503034923 44 31 1.7 1.7 0.00 0.00 0.00 60 1052.5
20260503034421 44 31 1.7 2.6 0.00 0.00 0.00 60 1052.7
20260503033917 44 22 1.7 1.7 0.00 0.00 0.00 61 1052.5
20260503033415 44 36 1.7 2.6 0.00 0.00 0.00 61 1052.4
20260503032913 44 33 1.7 1.7 0.00 0.00 0.00 61 1052.7
20260503032411 43 44 1.7 2.6 0.00 0.00 0.00 62 1052.4
20260503031909 42 28 1.7 1.7 0.00 0.00 0.00 65 1052.4
20260503031406 43 26 0.9 0.9 0.00 0.00 0.00 68 1052.4
20260503030902 43 32 0.0 0.0 0.00 0.00 0.00 65 1052.6
20260503030359 44 32 0.0 0.9 0.00 0.00 0.00 64 1052.4
20260503025855 43 18 0.9 0.9 0.00 0.00 0.00 63 1052.4
20260503025353 42 345 0.9 0.9 0.00 0.00 0.00 67 1052.7
20260503024850 42 344 0.0 0.0 0.00 0.00 0.00 72 1052.4
20260503024346 43 344 0.0 0.0 0.00 0.00 0.00 76 1052.4
20260503023843 43 344 0.0 0.0 0.00 0.00 0.00 77 1052.1
20260503023341 44 344 0.0 0.0 0.00 0.00 0.00 70 1052.1
20260503022838 44 344 0.0 0.0 0.00 0.00 0.00 68 1052.0
20260503022338 43 344 0.0 0.0 0.00 0.00 0.00 69 1052.0
20260503021834 43 339 0.0 0.0 0.00 0.00 0.00 72 1052.1
20260503021330 42 338 0.9 0.9 0.00 0.00 0.00 74 1052.0
20260503020828 42 327 0.0 0.0 0.00 0.00 0.00 78 1052.0
20260503020326 42 327 0.0 0.0 0.00 0.00 0.00 76 1051.5
20260503015822 43 327 0.0 0.0 0.00 0.00 0.00 75 1051.6
20260503015319 43 327 0.0 0.0 0.00 0.00 0.00 74 1051.4
20260503014815 43 327 0.9 0.9 0.00 0.00 0.00 76 1051.6
20260503014313 44 327 0.0 0.0 0.00 0.00 0.00 75 1051.5
20260503013810 44 327 0.9 0.9 0.00 0.00 0.00 71 1051.4
20260503013307 45 328 0.0 0.0 0.00 0.00 0.00 69 1051.2
20260503012804 45 327 0.0 0.0 0.00 0.00 0.00 69 1051.2
20260503012302 45 327 0.0 0.0 0.00 0.00 0.00 68 1051.1
20260503011758 45 327 0.0 0.0 0.00 0.00 0.00 68 1051.3
20260503011255 45 327 0.0 0.0 0.00 0.00 0.00 69 1051.1
20260503010751 46 327 0.0 0.0 0.00 0.00 0.00 71 1051.2
20260503010249 46 328 0.0 0.0 0.00 0.00 0.00 72 1051.1
20260503005746 47 327 0.0 0.0 0.00 0.00 0.00 66 1051.0
20260503005243 47 327 0.0 0.0 0.00 0.00 0.00 60 1051.1
20260503004739 48 327 0.0 0.0 0.00 0.00 0.00 59 1051.0
20260503004237 48 327 0.0 0.0 0.00 0.00 0.00 59 1050.8
20260503003734 49 327 0.0 0.0 0.00 0.00 0.00 57 1051.0
20260503003231 49 327 0.0 0.0 0.00 0.00 0.00 55 1050.9
20260503002728 50 327 0.0 0.9 0.00 0.00 0.00 54 1050.7
20260503002225 51 327 0.9 0.9 0.00 0.00 0.00 53 1050.8
20260503001721 51 327 0.9 0.9 0.00 0.00 0.00 53 1050.7
20260503001217 51 328 0.0 0.9 0.00 0.00 0.00 53 1050.4